User: anonymous   Login
Location: Unspecified
(0.0000°N, 0.0000°E)
Time: 19:11:09
(UTC+01:00)
Language:

Cosmos 1536 - Orbit

View from above orbital plane
View from above orbital plane
View from above satellite
View from above satellite

Ground track
Ground track

The orbit data is extracted from the following two-line orbital elements,

1 14699U 84013A   15031.16760936  .00002948  00000-0  21508-3 0  2886
2 14699 082.5259 089.1317 0014581 131.4229 228.8253 15.03279929682588
Epoch (UTC): 31 January 2015 04:01:21
Eccentricity: 0.0014581
inclination: 82.5259°
perigee height: 546 km
apogee height: 567 km
right ascension of ascending node: 89.1317°
argument of perigee: 131.4229°
revolutions per day: 15.03279929
mean anomaly at epoch: 228.8253°
orbit number at epoch: 68258

The dashed part of the orbit path shows where the satellite is in the earth's shadow,  

DLR